Location: Bakhuizen
(52.8696°N, 5.4575°E)
Time: 04:50:14
(UTC+00:00)

Cosmos 773 Rocket - Pass Details

Date: 26 September 2021
Orbit: 745 x 777 km, 74.1° (Epoch: 26 October)

Event Time Altitude Azimuth Distance (km) Brightness Sun altitude
Rises 18:01:21 0° 334° (NNW) 3,244 7.7 -6.1°
Reaches altitude 10° 18:03:44 10° 335° (NNW) 2,319 7.0 -6.4°
Maximum altitude 18:09:01 87° 65° (ENE) 781 4.1 -7.2°
Drops below altitude 10° 18:14:19 10° 155° (SSE) 2,320 6.2 -8.0°
Sets 18:16:41 0° 156° (SSE) 3,246 6.9 -8.4°
